Regional Weather Roundup
Issued by NWS Kansas City/Pleasant Hill, MO

Home | Current Version | Previous Version | Graphics & Text | Print | Product List | Glossary Off
Versions: 1 2 3 4 5 6 7 8 9 10 11 12 13 14 15 16 17 18 19 20 21 22 23 24 25 26 27 28 29 30 31 32 33 34 35 36 37 38 39 40 41 42 43 44 45 46 47 48 49 50

000
ASUS43 KEAX 241210
RWREAX

WEATHER ROUNDUP FOR EASTERN KANSAS AND NORTHWEST MISSOURI
NATIONAL WEATHER SERVICE KANSAS CITY/PLEASANT HILL MO
700 AM CDT SUN MAY 24 2015

KSZ040-057-103>105-MOZ028-029-037-043-241300-
...KANSAS CITY METROPOLITAN AREA...

CITY           SKY/WX    TMP DP  RH WIND       PRES   REMARKS
K.C. INTL      LGT RAIN  63  63 100 S10       29.88R FOG
6HR MIN TEMP:  61; 6HR MAX TEMP:  63; 6HR PCP:  0.54;

K.C. DOWNTOWN  CLOUDY    66  62  87 S9        29.88R
6HR MIN TEMP:  63; 6HR MAX TEMP:  66; 6HR PCP:  0.17;

LEES SUMMIT    LGT RAIN  64  63  96 S8        29.90R
6HR MIN TEMP:  61; 6HR MAX TEMP:  65; 6HR PCP:  0.17;

OLATHE - IXD   LGT RAIN  64  64 100 S8        29.90R
6HR MIN TEMP:  62; 6HR MAX TEMP:  64; 6HR PCP:  0.18;

OLATHE - OJC   LGT RAIN  64  64 100 S12       29.89R FOG
6HR MIN TEMP:  62; 6HR MAX TEMP:  64; 6HR PCP:  0.24;

LAWRENCE       CLOUDY    64  62  93 SW6       29.90R

$$

MOZ001>008-011>017-020>025-030>033-038>040-044>046-053-054-241300-
...NORTHERN AND CENTRAL MISSOURI...

CITY           SKY/WX    TMP DP  RH WIND       PRES   REMARKS
ST. JOSEPH     LGT RAIN  61  60  97 SE6       29.89R FOG
6HR MIN TEMP:  61; 6HR MAX TEMP:  62; 6HR PCP:  0.37;

MOSBY          CLOUDY    63  63 100 SE7       29.89S
WARRENSBURG    LGT RAIN  61  59  94 SE14      29.90R
WHITEMAN AFB   LGT RAIN  62  60  94 SE9       29.91S
6HR MIN TEMP:  60; 6HR MAX TEMP:  63; 6HR PCP:  0.41;

CLINTON        DRIZZLE   64  64 100 SE10G16   29.93F
SEDALIA        LGT RAIN  62  58  86 SE20      29.95F
6HR MIN TEMP:  61; 6HR MAX TEMP:  62; 6HR PCP:  0.24;

WARSAW         NOT AVBL
CHILLICOTHE      N/A     63  50  63 SE8G18    29.93S
6HR MIN TEMP:  61; 6HR MAX TEMP:  63; 6HR PCP:  0.58;

KIRKSVILLE     LGT RAIN  61  58  90 E12       30.00F
6HR MIN TEMP:  59; 6HR MAX TEMP:  61; 6HR PCP:  0.67;


$$

MOZ041-047>049-056>058-063>065-088>090-097-241300-
...EASTERN AND SOUTHERN MISSOURI...

CITY           SKY/WX    TMP DP  RH WIND       PRES   REMARKS
ST. LOUIS INTL PTSUNNY   67  55  65 SE10      30.09R
6HR MIN TEMP:  65; 6HR MAX TEMP:  71;

SPIRIT OF STL  PTSUNNY   66  56  70 E9        30.06S
COLUMBIA       CLOUDY    64  56  75 SE10      30.00S
JEFFERSON CITY CLOUDY    67  55  65 SE10      29.99S
ROLLA          CLOUDY    68  58  70 S13G20    30.01S
OSAGE BEACH    CLOUDY    70  57  64 S8        29.99R
SPRINGFIELD    CLOUDY    65  61  87 SE10      29.97S
BRANSON        LGT RAIN  64  64 100 SE6       30.00S FOG
JOPLIN         LGT RAIN  64  63  96 SE9G20    29.91R
WEST PLAINS    PTSUNNY   66  59  78 SE9       30.06S

$$

IAZ060-094-KSZ022-034>040-054-083-096-NEZ052-066-093-241300-
...KANSAS...SOUTHEAST NEBRASKA AND IOWA...

CITY           SKY/WX    TMP DP  RH WIND       PRES   REMARKS
TOPEKA         CLOUDY    64  61  90 SW6       29.89R
6HR MIN TEMP:  63; 6HR MAX TEMP:  65; 6HR PCP:  0.08;

MANHATTAN      CLOUDY    62  62 100 SW7       29.90R
EMPORIA        CLOUDY    60  59  96 S6        29.91R
CHANUTE        LGT RAIN  63  62  97 SW5       29.92R
WICHITA        CLOUDY    60  58  92 E5        29.90F
OMAHA          CLOUDY    61  59  93 E10       29.88F FOG
LINCOLN        CLOUDY    60  59  96 CALM      29.88R FOG
FALLS CITY     LGT RAIN  62  60  93 SE9       29.87R FOG
LAMONI         CLOUDY    63  59  87 SE10G26   29.93S
DES MOINES     LGT RAIN  61  58  90 E12       29.96F

$$




USA.gov is the U.S. government's official web portal to all federal, state and local government web resources and services.